Location: Unspecified
(33.9239°N, 118.0544°W)
Time: 00:15:28
(UTC-07:00)

Resurs 1-4 Rocket - Visible Passes

Search period start: 29 June 2016 00:00
Search period end: 09 July 2016 00:00
Orbit: 801 x 813 km, 98.4° (Epoch: 28 June)

Date Brightness Start Highest point End Pass type
(mag) Time Alt. Az. Time Alt. Az. Time Alt. Az.
29 Jun 2.4 03:26:23 10° NNE 03:31:40 64° ESE 03:33:57 34° S visible
29 Jun 4.0 05:08:18 10° NW 05:10:54 14° WNW 05:13:29 10° W visible
30 Jun 3.3 03:02:12 10° NNE 03:07:04 36° E 03:09:04 27° SE visible
30 Jun 3.4 04:42:31 10° NNW 04:46:39 24° WNW 04:50:09 13° WSW visible
01 Jul 4.0 02:38:29 10° NE 02:42:23 21° E 02:44:12 17° ESE visible
01 Jul 2.7 04:17:23 10° N 04:22:18 40° WNW 04:25:17 21° SW visible
02 Jul 4.6 02:16:10 10° ENE 02:17:37 11° E 02:19:04 10° ESE visible
02 Jul 2.1 03:52:36 10° N 03:57:53 70° WNW 04:00:24 31° SSW visible
03 Jul 2.3 03:28:05 10° NNE 03:33:22 67° ESE 03:35:32 36° S visible
03 Jul 4.1 05:10:12 10° NW 05:12:34 13° WNW 05:14:57 10° W visible
04 Jul 3.2 03:03:53 10° NNE 03:08:46 38° E 03:10:39 29° SE visible
04 Jul 3.5 04:44:18 10° NNW 04:48:19 23° WNW 04:51:44 12° WSW visible
05 Jul 3.9 02:40:06 10° NE 02:44:07 21° E 02:45:47 19° ESE visible
05 Jul 2.8 04:19:09 10° N 04:24:00 38° WNW 04:26:52 21° SW visible
06 Jul 4.5 02:17:31 10° ENE 02:19:21 12° E 02:20:54 10° ESE visible
06 Jul 2.1 03:54:20 10° N 03:59:35 67° WNW 04:01:59 32° SSW visible
07 Jul 2.2 03:29:47 10° NNE 03:35:05 71° ESE 03:37:06 38° S visible
07 Jul 4.1 05:12:07 10° NW 05:14:15 12° WNW 05:16:22 10° W visible
08 Jul 3.1 03:05:33 10° NNE 03:10:30 39° E 03:12:13 31° SE visible
08 Jul 3.5 04:46:06 10° NNW 04:50:01 22° WNW 04:53:19 12° WSW visible
